Hourly Weather Bolshie Gorki

Today, 19 June, Saturday

Time Temperature Precipitation Wind Pressure Humidity
00:00 +17°C° 0 mm 2 mps 756 mmHg 83%
01:00 +16°C° 0 mm 3 mps 756 mmHg 85%
02:00 +16°C° 0 mm 3 mps 756 mmHg 87%
03:00 +16°C° 0 mm 2 mps 756 mmHg 86%
04:00 +17°C° 0 mm 2 mps 756 mmHg 84%
05:00 +18°C° 0 mm 2 mps 756 mmHg 83%
06:00 +19°C° 0 mm 2 mps 756 mmHg 77%
07:00 +21°C° 0 mm 3 mps 756 mmHg 70%
08:00 +24°C° 0 mm 3 mps 756 mmHg 62%
09:00 +25°C° 0 mm 3 mps 756 mmHg 58%
10:00 +26°C° 0 mm 3 mps 756 mmHg 53%
11:00 +28°C° 0 mm 3 mps 756 mmHg 49%
12:00 +28°C° 0 mm 3 mps 756 mmHg 47%
13:00 +29°C° 0 mm 3 mps 755 mmHg 44%
14:00 +29°C° 0 mm 3 mps 755 mmHg 42%
15:00 +29°C° 0 mm 3 mps 755 mmHg 45%
16:00 +28°C° 0 mm 3 mps 755 mmHg 49%
17:00 +28°C° 0 mm 2 mps 755 mmHg 52%
18:00 +26°C° 0 mm 2 mps 754 mmHg 60%
19:00 +24°C° 0 mm 2 mps 754 mmHg 68%
20:00 +21°C° 0 mm 2 mps 754 mmHg 76%
21:00 +20°C° 0 mm 2 mps 754 mmHg 79%
22:00 +19°C° 0 mm 2 mps 755 mmHg 81%
23:00 +18°C° 0 mm 2 mps 755 mmHg 84%

Tomorrow, 20 June, Sunday

Time Temperature Precipitation Wind Pressure Humidity
00:00 +17°C° 0 mm 2 mps 755 mmHg 85%
01:00 +17°C° 0 mm 2 mps 755 mmHg 87%
02:00 +16°C° 0 mm 2 mps 755 mmHg 88%
03:00 +17°C° 0 mm 2 mps 755 mmHg 86%
04:00 +18°C° 0 mm 2 mps 755 mmHg 85%
05:00 +19°C° 0 mm 1 mps 755 mmHg 83%
06:00 +21°C° 0 mm 1 mps 755 mmHg 76%
07:00 +23°C° 0 mm 2 mps 755 mmHg 69%
08:00 +25°C° 0 mm 2 mps 755 mmHg 62%
09:00 +26°C° 0 mm 2 mps 755 mmHg 58%
10:00 +28°C° 0 mm 2 mps 754 mmHg 53%
11:00 +29°C° 0 mm 2 mps 754 mmHg 49%
12:00 +29°C° 0 mm 2 mps 754 mmHg 47%
13:00 +30°C° 0 mm 2 mps 754 mmHg 46%
14:00 +30°C° 0 mm 2 mps 754 mmHg 45%
15:00 +30°C° 0 mm 2 mps 753 mmHg 48%
16:00 +30°C° 0 mm 2 mps 753 mmHg 51%
17:00 +30°C° 0 mm 2 mps 753 mmHg 54%
18:00 +28°C° 0 mm 2 mps 753 mmHg 62%
19:00 +26°C° 0 mm 2 mps 753 mmHg 69%
20:00 +24°C° 0 mm 2 mps 753 mmHg 77%
21:00 +23°C° 0 mm 2 mps 753 mmHg 80%
22:00 +21°C° 0 mm 2 mps 753 mmHg 82%
23:00 +20°C° 0 mm 2 mps 753 mmHg 85%

Day after tomorrow, 21 June, Monday

Time Temperature Precipitation Wind Pressure Humidity
00:00 +20°C° 0 mm 2 mps 753 mmHg 86%
01:00 +19°C° 0 mm 2 mps 753 mmHg 87%
02:00 +19°C° 0 mm 2 mps 753 mmHg 88%
03:00 +19°C° 0 mm 2 mps 753 mmHg 86%
04:00 +21°C° 0 mm 1 mps 753 mmHg 84%
05:00 +21°C° 0 mm 1 mps 753 mmHg 81%
06:00 +23°C° 0 mm 1 mps 753 mmHg 75%
07:00 +24°C° 0 mm 1 mps 753 mmHg 68%
08:00 +26°C° 0 mm 2 mps 753 mmHg 61%
09:00 +27°C° 0 mm 2 mps 753 mmHg 57%
10:00 +28°C° 0 mm 2 mps 753 mmHg 53%
11:00 +29°C° 0 mm 2 mps 753 mmHg 48%
12:00 +30°C° 0 mm 2 mps 753 mmHg 45%
13:00 +30°C° 0 mm 2 mps 753 mmHg 42%
14:00 +31°C° 0 mm 2 mps 753 mmHg 39%
15:00 +31°C° 0 mm 2 mps 753 mmHg 43%
16:00 +30°C° 0 mm 2 mps 752 mmHg 47%
17:00 +30°C° 0 mm 2 mps 752 mmHg 50%
18:00 +28°C° 0 mm 2 mps 752 mmHg 58%
19:00 +26°C° 0 mm 2 mps 752 mmHg 65%
20:00 +24°C° 0 mm 2 mps 752 mmHg 73%
21:00 +23°C° 0 mm 2 mps 752 mmHg 76%
22:00 +21°C° 0 mm 2 mps 752 mmHg 79%
23:00 +20°C° 0 mm 2 mps 753 mmHg 83%

22 June, Tuesday

Time Temperature Precipitation Wind Pressure Humidity
00:00 +20°C° 0 mm 2 mps 753 mmHg 86%
01:00 +20°C° 0 mm 2 mps 753 mmHg 88%
02:00 +20°C° 0 mm 2 mps 753 mmHg 91%
03:00 +21°C° 0 mm 1 mps 753 mmHg 90%
04:00 +22°C° 0 mm 1 mps 753 mmHg 89%
05:00 +23°C° 0 mm 1 mps 753 mmHg 87%
06:00 +24°C° 0 mm 1 mps 753 mmHg 81%
07:00 +26°C° 0 mm 2 mps 753 mmHg 75%
08:00 +27°C° 0 mm 2 mps 753 mmHg 69%
09:00 +28°C° 0 mm 2 mps 753 mmHg 62%
10:00 +30°C° 0 mm 3 mps 753 mmHg 55%
11:00 +31°C° 0 mm 3 mps 753 mmHg 48%
12:00 +33°C° 0 mm 3 mps 753 mmHg 45%
13:00 +34°C° 0 mm 3 mps 753 mmHg 41%
14:00 +34°C° 0 mm 3 mps 752 mmHg 38%
15:00 +34°C° 0 mm 3 mps 752 mmHg 41%
16:00 +33°C° 0 mm 3 mps 752 mmHg 44%
17:00 +33°C° 0 mm 3 mps 752 mmHg 47%
18:00 +30°C° 0 mm 3 mps 752 mmHg 56%
19:00 +27°C° 0 mm 2 mps 752 mmHg 64%
20:00 +25°C° 0 mm 2 mps 752 mmHg 73%
21:00 +24°C° 0 mm 2 mps 752 mmHg 78%
22:00 +23°C° 0 mm 2 mps 752 mmHg 82%
23:00 +23°C° 0 mm 2 mps 752 mmHg 87%

23 June, Wednesday

Time Temperature Precipitation Wind Pressure Humidity
00:00 +21°C° 0 mm 2 mps 753 mmHg 89%
01:00 +21°C° 0 mm 2 mps 753 mmHg 92%
02:00 +20°C° 0 mm 2 mps 753 mmHg 95%
03:00 +21°C° 0 mm 2 mps 753 mmHg 93%
04:00 +23°C° 0 mm 2 mps 753 mmHg 91%
05:00 +23°C° 0 mm 2 mps 753 mmHg 89%
06:00 +25°C° 0 mm 2 mps 753 mmHg 82%
07:00 +27°C° 0 mm 2 mps 753 mmHg 74%
08:00 +29°C° 0 mm 2 mps 753 mmHg 67%
09:00 +30°C° 0 mm 2 mps 753 mmHg 61%
10:00 +31°C° 0 mm 3 mps 753 mmHg 55%
11:00 +34°C° 0 mm 3 mps 753 mmHg 48%
12:00 +34°C° 0 mm 3 mps 753 mmHg 46%
13:00 +34°C° 0 mm 3 mps 753 mmHg 44%
14:00 +35°C° 0 mm 3 mps 753 mmHg 42%
15:00 +34°C° 0 mm 3 mps 753 mmHg 45%
16:00 +34°C° 0 mm 2 mps 753 mmHg 48%
17:00 +34°C° 0 mm 2 mps 753 mmHg 51%
18:00 +30°C° 0 mm 2 mps 753 mmHg 57%
19:00 +28°C° 0 mm 2 mps 752 mmHg 64%
20:00 +26°C° 0 mm 2 mps 752 mmHg 70%
21:00 +25°C° 0 mm 2 mps 752 mmHg 72%
22:00 +24°C° 0 mm 2 mps 753 mmHg 73%
23:00 +23°C° 0 mm 2 mps 753 mmHg 75%

24 June, Thursday

Time Temperature Precipitation Wind Pressure Humidity
00:00 +23°C° 0 mm 2 mps 753 mmHg 77%
01:00 +21°C° 0 mm 2 mps 753 mmHg 80%
02:00 +21°C° 0 mm 2 mps 753 mmHg 83%
03:00 +22°C° 0 mm 1 mps 753 mmHg 82%
04:00 +23°C° 0 mm 1 mps 753 mmHg 81%
05:00 +23°C° 0 mm 1 mps 753 mmHg 81%
06:00 +25°C° 0 mm 1 mps 753 mmHg 73%
07:00 +27°C° 0 mm 1 mps 753 mmHg 66%
08:00 +29°C° 0 mm 2 mps 753 mmHg 59%
09:00 +30°C° 0 mm 2 mps 753 mmHg 53%
10:00 +32°C° 0 mm 2 mps 753 mmHg 48%
11:00 +34°C° 0 mm 3 mps 753 mmHg 42%
12:00 +34°C° 0 mm 3 mps 752 mmHg 41%
13:00 +35°C° 0 mm 2 mps 752 mmHg 39%
14:00 +35°C° 0 mm 2 mps 752 mmHg 37%
15:00 +35°C° 0 mm 2 mps 752 mmHg 41%
16:00 +35°C° 0 mm 2 mps 752 mmHg 44%
17:00 +34°C° 0 mm 1 mps 751 mmHg 48%
18:00 +32°C° 0 mm 1 mps 751 mmHg 54%
19:00 +30°C° 0 mm 1 mps 751 mmHg 61%
20:00 +28°C° 0 mm 1 mps 751 mmHg 67%
21:00 +27°C° 0 mm 1 mps 751 mmHg 71%
22:00 +26°C° 0 mm 2 mps 751 mmHg 75%
23:00 +25°C° 0 mm 2 mps 751 mmHg 79%
Show more